Wind_Gust
29 33 37 40 31 30 26 27 26 11 16 19 24 24 22 22 21 22 16 15 18 23 26 23 24 20 21 23 24 22 24 27 24 25 26 24 28 22 21 20 15 12 12 16 18 19 17 19 19 18 20 20 19 20 20 20 19 18 20 19 18 15 17 17 16 15 15 15 15 13 13 13 13 13 13 14 13 13 14 12 12 11 11 9 9 9
28 33 34 28 25 26 29 27 20 14 15 21 21 23 24 22 20 23 20 16 18 20 25 22 24 20 20 20 19 20 25 23 21 23 23 25 24 20 21 23 17 14 13 15 14 15 15 16 16 15 15 18 22 19 18 18 17 17 17 17 18 17 16 14 14 15 14 13 13 14 13 12 12 13 13 15 14 14 15 15 14 13 13 13 12 11
35 41 28 26 24 23 25 29 20 17 17 19 23 23 23 26 14 18 16 15 16 22 21 23 22 22 18 16 18 18 21 20 19 22 25 28 21 20 20 20 22 20 18 16 16 13 14 17 17 16 17 15 16 18 15 15 17 16 15 15 16 17 17 16 15 15 16 13 12 12 14 13 16 15 16 16 15 15 15 15 15 15 14 14 14 13
31 32 26 25 23 25 27 26 23 19 17 19 24 26 28 22 25 25 19 19 15 25 18 24 26 21 20 20 19 18 21 19 16 17 19 23 27 21 23 25 23 20 22 20 16 15 16 15 16 15 16 16 16 17 16 16 16 17 16 17 18 18 15 15 16 13 14 14 13 12 15 15 14 17 18 16 15 14 14 15 15 15 14 15 15 15
29 19 24 23 24 27 28 26 26 26 24 21 21 23 25 22 25 15 29 21 16 12 12 24 26 24 23 21 17 15 17 17 18 19 18 19 21 18 19 20 21 21 21 23 20 19 19 19 16 16 15 16 15 16 16 15 16 16 18 18 18 18 17 16 16 16 15 15 16 17 17 15 16 14 13 13 14 14 14 14 14 15 14 15 16 16
26 18 25 27 27 27 27 30 32 28 27 24 19 18 18 19 21 15 21 24 24 23 23 25 30 31 24 23 20 18 20 20 21 21 20 21 22 23 22 23 20 16 17 22 22 23 22 20 18 18 17 16 16 17 18 17 19 18 18 18 17 17 16 16 16 16 14 15 16 16 15 14 12 12 10 12 12 12 13 14 13 14 16 15 16 16
23 21 24 28 27 28 29 29 29 28 28 22 28 16 12 17 20 17 16 26 28 28 29 27 30 26 25 27 23 20 21 22 21 22 22 22 23 25 25 26 24 23 24 22 21 22 23 21 21 15 17 17 18 16 16 17 17 18 19 17 18 17 17 15 14 14 14 15 15 12 11 10 9 13 12 11 10 11 10 10 12 14 15 16 16 16
22 26 25 25 28 31 31 33 33 33 29 29 19 22 14 12 16 17 17 22 24 13 15 19 29 25 28 30 26 24 24 25 22 20 23 24 23 26 24 25 24 26 27 28 23 22 22 23 21 17 17 19 18 18 18 19 18 19 19 18 18 17 17 15 14 14 13 14 13 14 14 14 13 13 13 11 10 9 9 11 12 12 14 16 16 16
26 27 28 28 27 32 34 27 24 30 33 20 21 20 17 13 12 13 18 22 15 13 26 27 24 30 24 26 26 27 26 26 25 23 23 25 26 28 28 28 29 27 26 27 27 25 25 23 22 21 17 21 20 19 18 19 19 20 20 19 19 19 18 17 16 16 15 15 15 14 14 14 13 12 11 9 9 9 9 10 11 12 13 15 16 16
24 25 26 25 28 30 23 25 27 31 34 15 19 18 15 14 11 16 20 21 16 20 26 28 29 36 29 26 27 27 27 29 30 27 25 26 30 31 30 27 29 27 24 24 26 26 24 24 22 16 19 19 17 17 19 19 20 20 20 20 20 19 19 17 17 17 17 16 14 14 12 12 11 10 11 9 10 10 9 11 12 12 14 14 14 15
19 20 22 29 31 22 23 24 27 28 24 19 21 20 19 17 18 15 18 18 19 25 32 23 27 30 32 30 31 32 37 31 28 27 25 25 26 29 28 26 27 27 27 25 24 23 26 25 22 19 23 21 16 18 20 20 20 19 19 19 21 19 18 17 17 16 16 14 14 14 13 12 12 11 11 10 10 10 10 11 12 11 11 12 12 13
21 24 27 30 21 20 23 25 26 27 24 25 30 30 23 22 16 17 21 17 24 32 26 27 23 27 34 26 28 30 26 31 31 31 31 30 31 32 28 28 29 27 25 25 26 25 26 24 22 21 22 18 18 15 17 19 19 18 18 19 21 19 17 17 17 16 16 16 16 15 14 15 13 12 11 12 11 11 10 11 11 10 11 12 12 14
26 28 22 22 20 25 30 25 28 31 28 30 28 31 31 29 27 29 29 30 35 31 21 25 21 25 36 14 21 26 27 31 30 31 37 36 33 31 30 28 27 26 24 26 26 26 27 27 23 23 20 19 16 17 18 18 19 19 19 20 22 18 16 16 16 17 17 18 17 16 16 15 15 14 13 13 12 11 11 11 11 11 11 12 13 14
24 22 26 23 24 28 29 35 36 36 35 34 37 38 38 37 34 30 33 28 26 19 14 17 19 29 15 21 18 26 26 29 31 29 30 33 34 32 29 27 27 23 22 24 27 27 26 23 23 23 20 17 20 18 19 18 19 19 20 19 22 20 17 16 18 18 19 19 18 17 17 16 15 14 14 13 14 13 12 12 11 11 12 12 13 13
30 32 33 31 33 30 35 29 30 25 33 36 28 35 32 31 40 31 34 34 29 24 21 15 21 24 24 19 16 17 20 23 26 24 23 23 26 24 25 26 27 24 22 27 29 29 31 35 29 24 21 20 19 18 20 19 19 20 20 20 20 19 17 18 18 19 19 18 18 17 17 16 15 15 15 15 15 15 14 13 12 13 12 13 13 14
27 22 25 28 15 31 30 26 26 26 29 32 30 27 32 34 19 27 11 16 25 23 21 28 25 12 17 14 11 12 13 20 24 25 28 24 24 26 24 25 25 24 25 27 29 28 28 28 26 26 23 21 21 19 19 19 20 21 21 19 19 19 18 18 18 18 18 17 18 17 17 17 16 15 15 15 14 14 13 14 14 14 13 14 14 14
29 24 30 27 15 30 28 28 28 29 38 35 34 40 34 23 21 14 8 13 7 12 23 21 24 17 17 15 13 16 18 20 24 26 28 28 28 25 25 23 23 26 27 26 29 30 31 29 27 27 25 23 22 21 20 21 21 21 20 20 19 19 18 18 17 17 16 17 17 18 17 16 16 17 16 16 15 14 15 14 14 14 15 14 15 14
29 25 29 26 27 27 27 24 23 28 22 30 38 30 20 18 18 22 23 13 20 25 20 26 28 24 24 21 19 20 22 22 25 28 30 29 30 27 24 24 26 27 27 27 29 32 32 29 28 26 27 23 22 23 23 22 20 19 19 19 19 18 18 17 17 16 15 17 17 17 18 18 17 18 17 16 16 16 16 16 16 15 16 16 16 16
22 27 31 25 22 27 24 25 25 28 28 28 30 19 37 31 24 24 24 25 28 29 25 23 24 26 30 22 26 24 30 26 27 29 30 32 32 32 27 25 26 27 28 30 30 31 29 29 28 30 29 27 25 23 22 23 21 20 19 18 19 19 18 16 16 15 16 16 17 18 18 18 19 18 19 18 17 16 17 18 18 18 17 16 16 17
21 26 28 25 27 28 27 29 33 34 24 17 23 33 28 23 29 28 31 16 25 21 20 22 25 27 28 24 27 30 29 31 31 31 33 36 36 35 29 29 30 30 28 29 31 30 29 29 29 30 30 29 28 25 22 21 21 20 20 19 19 19 17 16 16 15 17 18 19 20 20 20 19 18 17 16 16 17 18 17 16 17 17 18 18 18
25 16 29 32 26 31 37 39 32 33 35 34 33 35 33 32 16 25 26 33 25 27 24 23 21 24 24 26 28 32 34 36 37 37 36 34 31 29 28 31 30 29 28 29 30 30 31 30 28 29 28 29 26 22 23 23 23 20 20 20 19 19 18 17 17 17 18 19 20 20 20 19 18 17 18 17 17 17 17 17 17 17 16 17 19 18
25 25 25 34 33 33 28 27 24 29 30 30 32 32 30 30 26 31 31 30 34 27 25 24 24 14 20 24 27 31 34 37 39 38 36 30 30 29 30 27 29 29 27 28 28 28 30 29 29 28 31 28 26 23 24 23 22 20 20 20 21 21 20 18 19 19 19 18 20 19 19 18 17 18 18 18 18 18 18 18 19 17 17 17 19 19
19 27 26 30 29 27 23 26 26 22 26 27 28 30 29 29 27 33 31 25 25 25 14 16 18 16 15 18 19 23 25 30 30 26 27 26 26 27 29 28 28 29 30 31 30 30 30 30 28 28 28 27 25 25 24 22 22 21 20 19 20 22 21 19 19 19 19 19 20 20 19 19 18 18 18 19 19 20 19 18 18 18 18 18 18 20
7 35 30 27 24 22 15 17 23 20 24 30 32 30 31 36 33 31 28 17 26 20 20 15 15 13 12 15 11 11 21 22 24 25 25 27 25 29 29 30 30 30 30 30 31 31 33 30 28 28 26 27 26 24 23 22 23 21 20 21 22 22 21 19 19 19 19 19 20 19 18 19 19 20 20 20 20 20 19 19 19 19 19 18 18 21
33 26 27 31 32 31 22 24 28 26 30 36 35 36 30 29 26 23 20 17 24 30 26 22 23 15 17 17 15 18 21 25 25 24 27 29 26 30 31 30 31 31 32 32 32 33 33 31 31 30 28 28 29 26 24 22 22 23 21 21 23 23 21 20 19 19 19 18 19 19 20 19 20 21 21 21 20 20 19 19 19 19 20 19 20 20
17 23 30 33 35 37 40 43 45 42 42 36 29 32 30 30 30 29 27 23 29 23 29 31 24 18 17 17 19 21 19 21 22 24 25 26 27 31 31 32 33 33 36 34 33 32 32 32 31 29 26 27 27 27 25 23 23 23 23 22 21 23 21 20 19 19 19 19 19 20 20 19 19 21 20 20 20 19 19 19 19 19 19 19 20 20
15 24 25 23 27 27 21 17 14 21 27 36 32 32 33 30 30 26 23 26 32 18 28 30 23 18 16 19 22 25 24 25 27 26 28 29 29 29 27 31 32 32 33 33 33 33 30 27 28 27 26 26 26 24 21 23 23 22 21 21 21 21 21 21 19 19 19 18 18 20 20 20 19 20 19 20 19 19 20 20 19 20 20 19 19 20
16 23 23 16 18 21 21 18 17 24 29 29 27 29 29 30 30 29 32 37 22 20 29 23 23 22 20 21 23 26 24 23 23 24 24 27 29 30 30 29 26 32 32 32 31 32 31 30 28 28 28 28 26 24 23 23 23 22 22 22 21 21 21 21 19 19 18 18 19 19 19 18 18 19 20 19 20 20 20 20 20 20 19 19 20 20
22 18 22 17 16 12 14 16 20 27 28 30 30 28 30 30 31 33 32 27 20 27 22 17 19 23 22 28 32 35 34 35 33 29 25 25 26 27 29 30 30 32 31 32 31 31 32 31 30 29 28 28 26 25 24 23 23 22 22 22 22 22 22 21 19 18 18 18 19 19 18 18 18 18 19 20 20 20 20 20 20 19 20 20 20 19
22 19 20 21 15 13 10 11 14 22 26 29 31 30 30 31 33 34 29 25 25 19 19 18 21 24 23 27 31 29 24 23 24 25 28 27 26 28 29 30 32 32 32 32 32 31 29 29 31 29 28 27 26 25 24 23 23 22 23 23 23 22 21 20 19 19 18 19 19 19 19 19 18 19 19 20 21 20 20 20 19 19 20 20 20 19
23 21 20 23 19 16 11 10 15 19 19 27 26 29 31 31 31 32 30 27 24 25 20 14 17 19 14 12 23 23 24 24 25 28 30 31 31 29 29 32 31 31 33 32 32 31 28 26 27 28 28 27 24 24 24 23 23 23 23 23 23 22 20 20 19 18 18 19 19 19 18 19 19 19 20 19 19 19 20 20 19 19 19 19 19 19
25 16 16 20 18 19 12 12 14 15 18 24 26 26 29 30 34 34 41 31 28 29 23 16 18 20 18 18 24 26 27 29 30 30 30 31 34 34 33 31 32 32 33 32 31 30 29 30 29 29 27 24 23 24 23 23 23 23 24 23 23 22 21 20 19 19 19 19 19 19 19 19 19 19 19 19 20 19 19 19 19 20 19 19 19 19
29 21 21 19 20 19 17 13 14 15 17 24 25 29 29 28 25 25 29 28 29 23 27 23 27 14 24 27 29 28 30 30 30 31 31 31 35 38 37 35 33 32 30 30 29 28 29 30 30 28 26 26 24 23 22 23 24 23 23 23 22 22 21 21 20 20 20 19 20 19 18 19 19 19 19 19 19 18 18 19 19 19 19 19 18 17
26 21 19 22 21 19 19 13 11 18 26 26 14 10 19 29 31 31 28 25 20 26 30 22 22 21 27 30 32 31 34 40 39 34 31 37 36 34 34 34 31 27 28 30 32 31 30 29 28 27 26 25 23 22 21 22 24 24 23 23 22 21 20 20 20 19 19 19 19 19 19 19 19 19 19 18 18 18 18 19 19 18 17 18 18 19
24 23 19 23 23 21 19 15 17 22 26 14 10 11 11 10 9 17 20 17 20 21 11 13 18 27 32 35 35 33 27 24 25 30 30 32 31 32 34 34 33 33 35 34 32 30 29 28 27 27 27 25 24 23 24 25 24 24 23 22 22 21 21 20 20 18 18 19 19 18 18 19 19 19 19 18 18 18 19 18 18 18 18 18 18 19
22 24 17 19 20 16 21 23 24 22 13 10 9 9 9 10 10 10 16 18 18 20 21 26 21 20 23 24 24 25 25 28 25 26 30 30 31 32 33 33 33 35 34 34 35 32 33 31 31 29 25 23 24 24 24 26 25 25 24 22 22 21 20 20 19 19 18 19 18 18 18 18 18 18 17 18 18 18 19 18 18 18 17 17 18 18
23 22 21 19 16 22 21 22 19 12 11 11 10 17 24 20 22 24 23 26 22 22 23 25 22 23 23 23 23 24 28 28 24 24 29 31 29 33 39 36 35 32 29 28 31 30 30 29 27 26 25 23 22 23 24 25 26 26 25 23 22 22 21 20 19 19 18 18 18 18 18 18 18 17 17 18 18 19 18 18 18 17 16 18 19 19
23 23 24 19 18 19 22 23 26 21 20 15 13 10 18 9 13 13 16 21 23 27 25 25 27 28 26 27 30 31 29 29 24 24 28 34 35 32 29 33 32 33 32 32 31 30 28 26 25 24 25 24 22 22 24 24 25 26 25 24 23 22 21 19 19 18 18 18 18 18 18 18 18 18 18 18 19 19 18 17 17 16 15 18 18 19
21 22 24 24 16 19 19 24 26 22 19 11 14 12 16 13 14 11 15 28 28 27 26 26 28 30 34 37 36 35 33 32 30 31 34 33 33 33 34 32 34 32 33 35 35 33 29 27 26 25 24 24 24 22 22 24 25 26 25 23 21 20 20 20 20 19 19 19 19 18 18 18 18 18 18 19 19 18 18 17 16 15 16 17 17 17
24 25 21 27 19 20 20 23 21 22 17 10 12 14 17 15 12 17 20 27 24 30 29 29 32 33 32 36 40 42 41 33 37 38 36 32 32 33 37 38 35 33 34 32 29 27 27 28 28 26 26 26 25 25 26 26 27 24 24 24 23 23 21 20 20 20 20 21 20 20 20 18 19 18 19 20 18 17 16 15 16 16 17 17 18 18
28 25 24 26 25 20 17 23 21 16 13 10 13 19 17 16 14 17 23 13 18 30 32 34 35 36 37 40 40 44 34 21 26 35 38 33 33 33 34 36 38 38 37 32 30 25 28 27 28 28 27 27 28 27 26 26 27 26 25 24 24 23 22 21 21 21 22 22 21 21 20 20 20 21 20 19 18 17 17 17 17 16 17 18 18 18
22 18 21 20 25 27 22 25 24 12 14 14 17 19 20 18 14 18 13 11 14 22 31 35 38 37 38 38 33 21 19 29 35 40 39 37 37 36 34 34 32 27 27 29 31 30 29 27 27 27 27 26 28 27 27 27 27 26 26 25 24 23 22 22 22 22 22 22 22 22 22 21 20 19 19 18 18 18 19 17 16 16 16 17 17 18
26 25 25 24 21 21 19 24 21 26 12 18 23 18 12 11 11 12 12 9 15 25 29 29 35 35 35 34 23 21 28 34 37 39 38 37 38 38 36 33 31 31 30 29 26 26 30 29 30 30 28 28 27 27 27 27 27 26 25 27 25 24 23 22 22 23 23 22 23 22 22 21 20 19 18 18 18 18 18 17 16 15 14 15 16 17
20 28 26 25 26 26 24 26 23 9 18 23 28 14 26 11 13 12 13 11 18 25 28 29 30 32 33 27 24 27 31 34 35 37 38 36 37 39 33 30 30 31 31 30 32 31 28 30 29 30 28 28 27 27 28 28 28 26 27 27 25 24 23 22 22 22 23 22 22 22 22 21 20 19 18 18 18 17 17 16 16 16 16 16 16 17
16 21 16 22 26 28 20 14 14 10 14 21 10 13 14 12 9 10 12 12 21 24 22 28 28 31 25 25 24 27 31 32 35 38 40 39 41 40 35 32 30 31 31 31 29 29 29 33 32 31 29 28 28 28 27 26 29 29 28 26 25 24 24 23 22 22 22 22 22 21 21 19 19 18 17 17 16 17 16 15 15 17 16 17 17 18
12 11 12 16 20 10 10 9 9 8 10 12 9 11 12 11 9 9 10 13 13 17 25 27 26 23 22 25 29 26 30 32 36 36 37 39 39 36 32 31 29 29 31 31 32 31 30 31 31 31 30 29 28 27 25 26 29 29 28 26 25 24 24 23 22 22 22 22 21 21 21 20 19 18 17 16 16 15 15 15 15 16 16 17 18 18
9 9 12 23 18 17 24 13 10 9 9 11 11 10 9 9 13 10 11 11 14 18 23 22 22 22 24 23 25 25 30 34 34 36 36 38 40 36 34 34 31 31 31 33 33 31 32 31 32 31 31 31 27 26 26 26 27 28 27 26 25 24 24 22 22 21 21 21 21 19 20 18 19 18 15 14 15 15 14 14 15 16 17 17 17 18
15 10 16 15 18 23 10 12 10 9 9 10 13 13 12 8 9 11 9 10 13 18 20 22 24 23 24 25 27 31 32 32 36 38 37 37 35 35 33 33 33 31 31 33 32 30 30 32 32 32 31 31 28 26 27 27 28 28 27 25 25 24 23 22 22 22 22 21 19 19 18 17 6 11 16 15 15 16 17 17 17 18 18 18 17 18
16 13 16 17 22 15 9 10 10 11 13 16 16 12 9 8 9 11 12 16 19 21 20 22 23 25 25 26 28 31 32 29 34 36 37 34 33 32 32 33 32 32 32 31 30 30 32 31 33 31 29 29 27 27 27 27 28 28 26 25 25 24 23 22 20 20 21 20 19 19 19 19 16 16 16 16 15 15 15 15 15 19 19 17 18 18
15 21 15 14 16 15 16 15 17 13 10 18 17 16 13 11 10 14 15 18 20 23 24 24 21 23 26 29 29 32 34 31 33 35 35 33 33 32 31 33 33 33 33 32 32 31 31 29 32 31 30 29 28 28 28 28 28 27 26 25 24 24 23 22 22 20 20 20 19 19 17 16 16 16 17 18 19 20 18 7 9 13 14 16 7 6
15 13 15 15 11 11 16 12 9 11 9 14 13 14 11 12 14 18 19 20 21 23 26 27 25 24 25 26 27 31 32 34 34 32 33 32 33 33 35 35 35 33 33 31 32 32 31 31 30 30 29 29 28 28 28 28 28 27 26 25 24 24 23 22 21 20 20 19 19 17 17 17 17 16 16 17 17 18 19 18 14 6 8 6 5 4
Wind_Speed
12 14 16 18 14 16 16 16 16 2 6 9 14 13 10 10 10 12 7 8 10 11 14 12 14 10 10 10 10 11 14 13 12 14 16 9 6 4 12 11 5 4 6 6 6 9 4 8 6 6 9 9 7 11 12 12 11 10 10 10 9 8 8 8 6 6 6 6 6 5 5 5 5 5 5 4 4 4 5 5 4 4 3 3 3 3
13 15 16 16 15 16 18 16 12 4 8 10 11 12 10 11 8 12 10 8 8 10 12 12 14 10 10 9 10 10 14 8 11 13 13 14 13 9 11 13 11 8 6 8 8 10 4 5 5 4 6 11 11 8 10 10 7 10 10 8 8 6 8 6 6 6 6 5 5 5 5 4 4 4 4 5 5 5 5 5 5 5 5 5 5 4
15 18 14 16 14 13 15 18 12 9 9 10 9 10 10 11 5 9 8 8 7 10 8 13 11 11 9 7 9 9 12 9 7 8 15 17 12 9 10 12 13 10 9 6 9 8 7 9 6 5 4 4 9 8 4 8 8 9 8 7 8 8 8 7 7 7 7 6 5 4 5 4 5 5 5 6 6 6 6 6 6 6 6 6 5 5
13 14 15 15 14 14 16 16 14 10 7 7 10 10 12 10 11 9 9 11 6 9 7 13 13 8 10 9 9 9 12 8 7 6 12 13 16 11 14 16 13 12 12 11 9 8 10 8 5 2 6 1 4 7 7 8 8 7 7 8 10 9 7 7 7 6 7 7 7 6 6 6 6 5 6 7 6 5 5 5 5 5 5 5 5 6
13 9 14 13 14 16 16 16 15 12 10 10 10 10 11 12 12 5 12 10 8 5 3 13 11 8 8 9 7 7 10 10 8 9 8 10 12 10 10 11 9 7 10 12 11 11 11 11 10 8 6 5 4 6 6 6 6 6 9 9 9 8 8 7 8 8 8 7 8 8 7 7 7 6 5 4 4 3 4 4 4 5 5 5 5 5
14 6 15 16 16 17 16 15 17 14 11 10 11 10 10 9 12 7 12 13 9 9 10 14 10 11 11 12 10 9 9 10 11 11 10 12 13 13 12 13 10 8 8 9 13 15 13 12 11 11 8 9 7 8 9 8 10 10 10 10 10 8 7 8 9 8 6 6 6 7 6 6 5 5 3 3 3 3 3 4 3 4 5 5 5 5
9 11 14 16 16 17 17 15 18 16 12 10 11 8 4 9 11 9 8 13 11 11 13 14 13 8 11 13 11 10 12 12 10 11 11 11 12 13 12 12 12 11 11 10 12 14 14 13 12 8 4 5 7 8 6 8 9 9 9 9 8 8 7 7 7 7 6 7 6 6 4 3 3 3 3 3 4 4 3 3 3 4 6 6 6 6
9 16 15 15 17 16 16 15 17 19 12 10 10 13 5 5 8 9 8 11 9 5 6 11 11 9 10 12 14 14 14 13 11 11 12 11 12 14 14 13 13 13 13 12 14 14 14 14 13 11 5 4 5 7 8 8 8 9 9 9 8 8 8 7 6 7 6 5 6 6 6 6 6 4 5 4 3 1 1 2 3 4 4 5 5 6
13 14 17 17 16 14 15 14 15 18 13 5 12 12 9 6 5 5 7 9 5 2 9 11 14 10 8 11 15 15 14 14 14 12 12 13 14 14 15 14 15 15 14 11 13 15 15 14 14 13 9 9 2 6 7 9 9 9 10 10 10 10 9 8 9 8 8 7 7 6 5 5 4 4 3 2 1 1 2 3 4 3 4 4 5 6
9 13 15 15 13 13 12 14 14 19 15 6 10 9 7 6 4 8 8 8 6 7 11 14 14 12 11 11 11 14 15 16 15 15 14 14 15 15 15 15 16 14 12 12 12 13 14 15 14 10 10 10 3 6 7 10 11 10 10 11 11 11 9 9 10 9 10 9 7 6 5 4 3 2 1 0 2 2 2 4 3 3 4 4 4 5
9 11 13 12 14 10 12 13 14 17 14 9 11 10 8 7 7 5 6 6 7 10 14 13 16 14 11 13 14 14 15 15 14 12 12 14 15 16 15 15 15 13 13 12 11 13 15 16 14 12 11 10 7 5 8 9 10 10 10 11 12 10 9 9 9 9 9 6 5 4 3 2 2 2 2 1 2 2 3 3 3 4 4 4 5 4
10 13 12 11 12 8 11 12 15 16 15 11 11 12 9 9 6 6 7 6 7 11 13 16 12 16 13 10 12 15 15 18 17 16 17 17 17 17 15 14 15 14 14 14 13 14 16 15 14 13 11 11 12 6 8 10 11 10 9 10 12 10 9 9 9 8 7 5 5 5 5 4 4 3 3 3 3 3 4 4 3 3 3 4 4 5
12 13 11 13 10 13 15 12 13 16 15 14 13 14 13 10 6 9 10 10 13 10 10 14 11 11 16 5 8 13 16 18 17 15 17 19 19 18 17 15 13 13 13 12 14 13 15 15 13 13 10 11 7 7 8 10 9 10 10 11 12 11 9 8 7 5 6 6 5 5 5 5 4 4 4 3 4 4 3 3 4 4 3 4 4 5
9 12 15 12 12 13 15 14 14 15 16 17 16 16 15 13 12 11 13 8 8 7 5 6 10 11 6 8 9 13 15 17 18 17 17 19 19 19 17 15 14 12 12 13 15 14 15 13 13 14 11 10 11 9 9 10 10 10 10 10 12 11 8 7 7 7 7 7 6 6 5 4 4 4 4 4 4 4 3 3 4 4 4 4 5 5
13 13 14 17 12 16 16 13 14 11 16 15 14 15 14 11 10 10 10 12 12 9 9 6 7 7 11 6 8 9 11 13 14 12 10 12 15 14 14 14 16 15 14 15 16 16 18 20 18 15 12 11 11 10 11 10 10 10 9 9 10 10 9 8 7 7 8 7 7 6 5 4 4 4 4 4 4 4 4 4 5 4 4 5 5 5
16 7 12 16 7 18 17 15 13 14 13 14 13 12 14 14 6 9 1 5 10 8 8 11 6 1 4 4 4 4 5 10 13 13 12 13 12 13 13 14 14 13 14 15 17 17 16 17 17 15 14 12 12 12 10 11 9 9 9 9 10 10 9 9 8 8 7 7 7 6 6 5 5 4 4 4 4 4 4 5 5 5 5 5 5 6
12 8 18 15 8 18 16 15 13 14 12 14 14 16 15 11 9 2 2 5 4 3 8 6 9 5 6 5 5 8 9 11 14 14 14 14 16 15 14 13 14 14 14 14 17 16 19 18 16 14 16 13 13 11 11 11 10 10 10 10 10 10 9 9 9 8 7 7 7 7 6 5 6 6 6 6 6 6 6 5 6 6 6 6 6 6
11 9 17 13 16 15 16 12 12 16 9 10 14 13 10 9 8 7 7 4 5 8 5 11 13 10 10 6 8 11 12 13 14 14 16 17 18 15 13 14 14 16 16 17 18 20 19 18 17 15 15 15 13 12 13 13 11 10 10 10 10 9 9 8 8 7 7 7 7 7 6 6 6 7 7 7 7 6 6 6 6 6 6 7 6 6
9 10 13 14 13 15 14 13 13 13 17 10 12 9 12 8 9 9 5 10 11 10 6 9 12 11 13 8 11 13 15 15 15 15 17 19 19 16 15 15 16 17 17 17 18 17 16 16 16 16 18 17 16 14 14 13 11 11 10 10 10 10 9 8 7 7 6 6 6 6 6 7 7 7 8 8 8 7 8 7 7 7 7 7 7 7
8 8 10 13 14 15 11 12 13 15 13 8 10 14 12 8 12 10 7 5 7 8 8 9 12 8 11 8 16 18 17 18 17 17 18 21 21 18 15 16 18 17 16 17 17 17 16 16 17 17 18 18 17 15 14 13 12 13 11 11 10 10 9 9 8 7 8 8 8 7 8 8 8 8 8 6 7 7 7 7 7 7 7 7 6 8
6 7 10 12 15 16 13 13 14 15 15 14 13 14 11 10 6 10 9 11 8 7 8 7 7 8 9 11 14 16 17 18 18 19 18 18 19 18 17 18 18 17 16 16 16 17 18 17 16 16 15 16 15 13 12 13 13 11 10 10 10 10 10 9 8 9 9 9 9 9 9 9 9 8 7 7 7 7 7 7 6 7 6 7 8 8
7 9 10 13 13 14 12 13 14 16 16 14 13 12 13 13 11 13 13 12 12 8 6 8 8 4 8 10 12 14 17 17 19 21 17 18 19 17 16 17 17 16 17 17 16 17 17 17 17 17 17 16 15 12 14 13 12 11 10 10 10 10 10 9 9 9 10 9 9 9 9 9 8 7 6 7 7 7 8 7 7 6 6 8 8 7
7 7 10 11 11 11 12 16 15 13 15 15 12 12 13 13 11 11 11 10 9 9 5 6 6 5 5 8 9 12 14 18 18 15 15 14 16 16 16 17 17 18 18 17 17 17 17 17 16 16 17 17 15 14 14 12 12 11 10 9 9 10 11 10 9 9 9 9 9 9 8 8 8 8 7 8 7 8 8 8 8 7 7 7 7 7
2 8 12 11 10 10 6 9 14 12 14 16 16 15 14 16 16 14 11 6 8 8 6 4 3 3 3 6 3 4 9 10 11 14 15 15 14 14 19 19 19 19 18 18 17 16 16 17 16 15 16 14 13 13 13 12 12 11 10 9 10 12 12 10 9 9 9 9 9 9 9 9 9 8 7 8 8 9 9 8 8 8 8 8 7 8
8 8 11 12 10 11 8 10 12 13 13 13 14 16 16 15 15 12 10 7 7 14 13 8 8 4 7 5 5 6 10 13 13 14 16 16 15 17 19 18 17 18 18 19 19 19 19 18 18 16 15 14 13 14 13 12 11 11 10 9 11 11 11 10 9 9 9 9 10 9 9 9 8 8 8 9 8 9 9 9 8 8 9 8 8 8
6 10 12 13 15 16 16 17 18 19 19 12 14 17 17 17 17 14 10 8 9 10 14 10 6 7 7 8 9 9 9 12 12 14 15 15 18 18 18 18 19 18 19 20 19 19 20 19 17 16 15 14 14 14 14 12 11 9 10 10 10 11 11 10 9 9 9 9 9 9 9 9 9 9 9 9 9 9 9 9 9 9 8 8 9 8
3 10 11 10 11 10 8 7 6 10 11 15 18 19 19 17 17 15 9 9 11 7 10 13 11 8 8 10 12 14 11 14 14 15 16 16 17 16 16 18 18 18 19 20 20 19 18 17 17 17 16 15 15 14 11 11 11 10 10 11 10 11 11 10 10 9 9 9 8 9 9 9 9 8 9 9 9 9 9 10 9 10 9 8 9 9
5 9 12 9 10 10 10 9 8 14 16 16 15 17 18 18 19 17 13 14 10 7 11 9 14 11 9 11 13 15 14 13 13 14 14 15 17 17 17 17 18 19 19 18 19 20 20 19 18 18 18 17 15 14 11 11 10 11 11 11 10 11 11 9 9 9 9 8 9 9 9 9 9 9 9 9 9 10 10 10 10 9 9 8 9 9
9 6 13 8 8 6 8 9 11 15 16 17 19 17 18 18 19 19 18 15 12 10 7 8 10 12 11 12 14 16 18 17 15 14 14 15 15 16 17 19 20 20 20 20 20 19 20 20 18 18 17 16 16 15 14 12 11 11 11 11 11 11 11 10 9 9 9 9 9 9 8 8 8 8 9 10 10 10 10 10 9 9 9 9 8 7
7 7 12 11 8 6 4 4 7 13 15 17 18 19 19 20 21 20 17 15 15 10 11 4 11 13 12 13 12 13 12 11 13 15 16 17 17 18 19 20 19 20 19 20 20 20 18 18 19 18 17 17 16 16 14 12 11 11 11 11 11 11 10 10 9 9 9 9 9 9 9 9 9 9 9 9 10 10 9 9 9 9 9 9 8 8
9 7 12 13 8 7 4 4 7 11 11 13 16 19 19 19 19 19 16 16 15 12 12 8 6 9 2 4 10 12 12 11 14 17 19 20 19 18 19 21 19 19 19 20 20 19 17 14 17 17 16 15 14 14 13 12 11 11 12 12 12 11 10 9 9 9 9 9 9 9 9 8 9 9 9 9 9 9 10 10 8 8 9 8 8 8
12 5 7 9 7 8 5 6 8 8 10 14 16 17 18 19 20 18 16 16 15 14 14 9 8 8 6 6 10 13 14 16 18 19 18 18 21 21 21 20 20 20 19 20 19 19 18 14 15 16 15 14 13 13 12 12 12 12 12 12 12 11 10 10 9 9 9 9 9 9 9 9 9 9 9 9 9 9 9 9 9 8 8 7 8 8
11 8 7 7 8 8 9 5 7 7 8 11 13 16 18 17 14 14 15 16 17 14 13 11 11 5 10 11 13 13 15 16 17 18 18 19 22 22 22 22 20 18 19 17 16 17 15 14 14 14 15 16 13 12 12 12 12 12 12 12 11 11 10 10 10 10 10 9 9 9 9 9 9 9 9 9 9 8 8 8 8 8 7 8 7 8
13 10 7 9 6 8 10 6 5 7 11 9 1 2 11 17 19 19 15 15 13 14 12 9 10 9 12 13 14 16 18 18 18 17 17 18 19 21 21 22 19 14 16 17 16 17 15 14 14 14 16 15 13 12 12 11 12 12 12 12 11 11 10 10 9 9 9 9 9 9 9 9 9 9 9 9 8 8 8 7 7 6 6 6 7 8
13 10 7 9 7 7 9 7 6 10 9 5 0 4 4 4 2 10 13 11 12 13 5 6 9 8 12 13 15 15 14 13 14 16 17 18 19 19 21 21 18 20 22 21 19 18 18 17 16 17 17 15 14 12 12 12 12 12 12 11 11 10 10 10 10 9 9 9 9 9 9 9 9 9 9 9 8 8 7 6 6 6 6 6 7 7
8 10 6 4 6 4 7 7 8 7 5 3 2 1 3 2 3 1 6 9 10 11 12 15 12 11 10 8 8 10 11 12 12 14 17 18 19 20 20 19 20 23 19 17 20 18 17 19 19 19 16 13 13 12 12 12 13 13 12 11 11 10 10 10 9 9 9 9 9 9 9 9 9 9 8 8 8 7 6 6 6 6 6 6 6 7
13 10 6 7 5 7 6 9 6 5 2 4 3 7 9 7 9 11 8 12 13 12 13 13 13 10 9 10 11 11 12 12 12 11 16 19 19 19 22 21 22 17 16 17 16 17 18 18 16 15 14 13 12 12 12 12 13 14 13 12 11 11 10 10 10 9 8 8 8 9 9 9 9 9 8 8 7 6 6 6 6 5 5 6 7 7
11 10 9 7 4 6 9 9 9 7 7 6 6 4 9 2 2 6 7 9 13 16 15 14 14 12 13 13 13 14 16 14 11 11 16 20 22 21 17 21 18 15 17 18 17 17 17 16 15 14 14 14 13 12 12 13 13 14 13 12 12 11 10 10 9 8 8 8 8 8 9 9 9 9 8 7 7 6 5 5 5 5 5 6 7 7
12 11 12 10 5 7 7 9 9 9 5 3 7 5 8 5 6 4 6 12 11 15 15 14 13 14 16 17 18 19 15 12 13 13 18 20 20 20 21 20 18 18 19 21 22 21 19 16 16 15 14 14 14 12 13 14 15 14 14 12 12 11 11 10 9 8 8 9 9 9 9 9 9 9 8 7 7 6 6 5 5 5 5 6 6 6
12 9 6 9 8 7 8 9 8 5 3 4 6 7 8 7 5 7 7 7 13 18 17 16 16 17 16 18 21 19 16 11 15 16 19 20 19 21 21 22 21 20 20 20 18 17 16 17 16 15 15 15 14 14 15 15 14 15 13 12 11 12 11 10 9 9 9 9 9 9 9 9 9 8 8 7 6 6 5 5 6 6 6 6 6 6
11 10 10 11 10 9 10 8 6 4 3 4 6 9 9 8 6 6 8 2 2 10 16 18 19 19 19 19 18 15 15 4 7 19 21 19 21 21 20 22 22 23 23 20 17 17 15 15 15 15 15 14 15 15 15 14 15 14 14 13 13 12 11 11 10 10 9 9 10 10 10 9 9 9 8 7 6 6 6 6 6 6 6 7 6 6
10 7 7 9 11 11 9 10 8 3 4 6 7 10 10 8 5 6 3 3 3 8 11 14 17 19 19 20 15 9 7 6 18 24 24 23 23 20 20 21 21 18 15 18 19 18 16 15 16 16 16 15 15 14 14 14 14 14 14 13 13 13 11 11 11 10 10 10 11 10 10 10 9 8 7 7 7 7 7 6 6 6 6 6 6 6
10 7 9 9 6 7 6 9 7 11 3 10 14 9 4 4 1 3 2 3 3 5 10 9 11 13 15 14 12 8 13 16 22 25 24 23 24 24 22 21 20 19 17 17 16 16 17 16 17 17 17 15 15 14 14 15 16 14 14 14 14 12 12 11 11 11 11 11 11 11 11 10 10 8 7 7 8 8 8 7 7 6 6 6 6 6
9 9 7 8 9 7 7 8 5 1 7 13 14 3 11 0 4 4 5 3 2 4 8 8 10 12 13 13 13 13 16 20 21 23 23 22 22 21 20 18 18 20 18 19 20 19 18 17 16 16 16 15 14 14 14 15 15 14 15 16 13 12 12 11 11 11 11 11 11 11 11 10 9 8 8 8 8 8 8 7 7 6 5 4 5 5
6 7 4 6 10 8 4 2 5 2 5 10 2 5 6 5 2 3 4 3 3 4 6 7 10 12 14 14 13 15 17 18 21 23 25 24 23 22 21 20 19 19 19 19 18 19 18 19 20 17 17 15 16 15 14 14 16 17 17 14 13 13 12 12 12 11 11 11 11 10 10 9 8 8 8 7 7 7 7 7 6 6 6 5 5 5
3 3 4 4 7 2 2 2 1 1 3 5 1 3 4 4 2 1 2 1 2 3 5 6 10 12 11 13 15 14 15 18 21 21 23 24 23 21 19 19 18 18 19 19 20 19 18 18 18 19 18 17 17 15 14 14 16 17 16 14 13 13 12 12 12 11 11 11 10 10 10 10 9 8 8 7 7 6 6 6 6 6 6 6 6 5
2 1 2 8 5 6 6 5 3 2 2 4 4 3 2 2 1 1 1 1 2 4 6 6 10 12 13 13 15 15 17 18 20 21 22 22 23 22 21 21 19 19 20 21 20 20 18 19 18 18 19 19 16 14 14 15 15 15 15 14 13 13 12 11 11 11 11 11 10 10 9 9 8 7 6 6 6 6 5 5 5 5 5 5 5 5
5 3 4 5 7 9 1 4 3 1 2 3 4 5 5 1 2 2 0 1 3 5 6 9 13 14 13 13 16 17 17 19 22 21 20 21 20 20 19 20 20 18 18 21 20 19 19 19 19 19 19 17 15 14 14 14 15 15 14 13 13 12 12 11 11 11 11 11 9 8 8 8 4 5 6 6 6 7 7 7 7 7 6 6 5 5
5 5 5 5 6 3 3 3 3 4 6 8 8 5 2 1 2 4 4 5 7 9 11 12 11 13 13 14 17 18 18 18 21 22 22 19 18 18 17 18 19 19 18 19 19 19 18 19 20 19 18 16 15 15 14 15 15 15 15 13 13 12 12 11 11 11 11 10 9 8 9 8 6 6 6 6 6 6 6 6 6 8 8 8 7 7
5 7 2 3 4 4 4 3 7 3 1 6 8 8 6 4 3 5 6 6 8 10 9 11 11 13 14 17 17 17 19 17 20 21 22 18 17 18 19 18 19 20 20 19 18 19 19 19 20 19 18 16 15 15 15 16 15 14 14 13 12 12 12 11 10 11 10 9 8 8 7 7 6 7 7 7 8 8 8 7 7 8 5 6 3 3
4 2 2 4 2 1 7 4 2 3 2 5 3 6 4 3 3 5 6 7 8 9 10 12 14 14 15 16 16 18 19 19 21 20 19 18 18 18 19 21 21 19 19 19 19 20 19 19 19 19 18 16 15 15 15 15 15 14 14 13 12 12 12 11 10 9 8 8 8 8 7 7 7 6 6 6 7 8 8 7 5 5 6 6 3 1
Wind_Direction
172 198 197 204 200 194 197 203 214 195 259 178 189 197 203 200 187 199 152 150 191 199 206 193 209 188 185 191 179 163 114 94 88 111 107 115 137 142 114 112 109 116 67 67 41 332 282 182 156 153 154 116 140 168 160 160 159 155 149 147 156 163 157 155 161 161 157 151 140 138 131 124 120 114 113 102 84 76 65 61 64 65 63 58 59 23
189 212 211 202 199 190 193 199 203 195 208 184 189 198 198 205 190 178 170 155 183 216 191 201 202 192 182 186 170 152 129 120 133 131 137 155 165 166 145 134 149 127 124 137 156 187 202 35 74 218 155 153 159 187 176 152 172 156 149 153 148 167 159 169 163 150 151 142 138 138 129 117 104 113 106 93 81 75 70 65 66 57 52 48 42 31
201 212 204 199 198 193 186 195 187 195 192 197 204 196 208 197 176 143 142 164 169 216 195 181 200 187 176 168 145 131 125 155 172 158 150 153 167 161 135 143 143 152 163 161 168 176 137 162 175 245 211 182 158 181 182 135 165 147 147 156 156 159 155 157 157 150 135 131 119 126 115 112 100 74 77 82 75 72 70 58 52 48 42 36 32 28
199 212 207 194 194 187 181 187 187 200 212 205 206 202 208 185 188 172 163 170 174 210 204 182 199 160 94 66 90 114 122 158 177 149 157 155 162 168 158 164 164 166 149 159 171 154 138 133 169 124 3 31 178 157 151 162 144 140 145 151 150 149 149 141 127 115 112 110 111 102 106 105 102 100 97 97 94 85 79 71 55 51 45 38 30 20
199 187 195 177 171 175 177 186 195 203 206 213 222 212 209 186 193 242 161 161 162 198 269 176 201 172 169 150 113 130 141 159 166 151 152 156 148 154 144 160 162 152 159 162 162 152 147 145 133 109 207 204 210 151 160 147 141 142 158 157 147 142 143 134 127 120 117 118 111 101 101 107 112 120 117 114 101 93 77 69 53 43 28 27 22 13
200 187 164 175 183 187 190 188 197 197 206 198 220 233 222 187 178 96 134 158 178 185 208 189 193 202 178 181 150 147 166 179 180 184 169 158 148 157 163 164 161 144 176 174 158 159 150 142 128 145 189 186 165 155 152 148 160 152 154 144 140 134 131 131 126 130 140 138 130 133 129 126 125 105 88 67 47 81 61 50 51 37 13 14 18 16
180 164 171 184 185 190 194 199 191 198 207 197 193 224 235 194 192 178 169 182 193 206 180 207 219 193 169 185 157 161 178 170 177 194 178 173 162 167 173 162 163 157 172 177 162 159 143 142 137 149 170 133 135 127 128 134 133 133 130 128 125 123 121 118 122 127 127 119 110 101 98 100 105 111 93 65 68 53 52 47 23 29 30 16 25 26
182 168 183 191 189 188 194 200 189 197 204 209 161 186 175 171 178 187 201 202 206 134 105 200 224 227 183 192 163 168 178 169 177 189 183 188 176 180 178 166 163 165 177 176 161 155 142 142 134 117 112 125 123 138 138 130 128 127 118 116 108 103 96 91 98 92 88 96 86 83 78 77 86 82 92 103 99 114 70 50 22 21 31 23 27 28
177 173 185 182 189 192 199 197 181 195 209 176 149 175 182 184 194 192 206 205 218 219 198 193 204 243 225 161 159 171 177 177 178 185 193 191 191 187 182 173 170 172 181 164 157 157 139 133 127 125 129 102 122 135 130 118 113 114 112 105 99 93 93 89 82 80 75 75 84 93 101 98 85 86 114 148 161 121 44 51 42 27 27 41 41 33
189 186 180 184 189 197 193 194 183 189 205 149 158 166 177 190 202 212 214 218 195 209 221 196 185 216 216 146 167 179 191 184 180 184 192 199 194 193 185 177 173 174 174 166 159 139 114 109 101 102 112 101 67 49 84 104 104 98 96 99 100 96 93 89 80 76 75 78 77 77 79 101 130 166 165 3 71 44 8 50 29 46 46 29 45 45
178 186 184 194 195 193 190 189 176 186 208 123 192 180 185 196 200 203 237 232 224 223 224 211 184 211 219 176 178 183 198 188 183 182 187 192 195 195 187 180 169 166 164 163 154 125 105 104 109 117 96 83 74 72 103 96 101 106 103 97 93 90 89 81 73 78 76 72 67 75 70 59 60 54 47 81 57 20 32 26 33 45 49 37 34 27
163 171 183 199 195 197 172 164 183 186 194 168 185 195 179 194 191 208 203 220 226 233 217 216 195 198 232 179 187 183 182 187 182 186 185 187 191 195 188 179 168 171 167 152 146 118 113 113 114 103 89 88 102 98 100 111 112 107 100 96 89 79 77 76 75 77 78 73 62 54 53 55 42 37 38 35 48 30 45 35 37 35 33 32 36 21
179 180 180 181 205 181 174 179 175 190 186 192 189 193 194 180 186 199 198 201 217 225 213 196 180 203 220 222 169 170 183 185 187 192 186 186 188 190 188 178 168 163 153 142 132 122 121 116 109 105 105 109 117 117 109 117 114 110 109 103 102 94 78 83 91 87 67 66 67 68 71 71 59 59 63 64 52 43 47 46 43 40 37 35 32 27
170 177 182 171 185 195 189 184 172 187 185 194 196 188 192 189 188 203 200 207 217 189 67 181 190 225 193 212 150 179 188 186 188 197 191 186 183 183 177 169 155 143 142 147 133 124 118 115 124 128 132 133 138 129 117 113 111 111 108 101 98 100 95 90 83 77 78 73 73 66 63 67 69 71 67 67 65 54 57 54 55 45 40 44 38 33
162 175 189 178 191 183 200 206 180 185 178 197 200 197 201 201 190 195 200 198 203 188 171 170 182 217 210 138 154 160 179 185 188 189 176 179 188 178 164 156 134 131 143 139 129 131 139 144 149 138 131 134 138 127 124 118 113 110 108 108 101 100 98 94 90 88 79 75 67 67 67 71 82 80 79 72 69 67 61 62 61 51 48 46 46 40
182 183 167 185 177 176 195 202 183 183 183 196 202 204 210 213 183 220 219 234 200 180 163 177 201 217 200 82 106 110 142 189 181 173 162 172 164 136 147 147 134 138 145 143 132 134 138 137 138 131 130 137 137 129 115 107 112 111 106 101 101 101 97 93 88 79 78 76 71 66 69 68 72 81 81 78 76 76 68 66 64 62 54 49 47 45
166 187 154 168 184 178 191 193 189 193 189 180 199 205 206 210 220 187 115 61 14 150 209 164 197 125 109 167 140 174 170 177 178 168 169 166 157 152 151 144 137 143 148 146 137 136 144 142 139 136 131 129 127 123 117 117 116 114 111 109 105 101 92 84 78 81 79 78 76 69 68 72 75 78 82 85 85 82 79 76 70 65 58 54 48 45
169 142 155 153 171 175 190 191 190 195 216 168 211 201 200 225 257 208 204 133 221 207 201 180 196 181 177 176 167 168 180 170 172 173 171 170 161 153 152 145 149 153 148 143 143 148 150 144 140 133 126 125 120 117 119 118 117 113 110 112 107 101 95 88 85 85 87 86 81 79 77 80 84 87 89 89 85 82 83 81 75 68 64 56 53 51
176 138 170 175 167 174 181 177 196 202 221 222 205 177 196 171 210 202 228 201 197 211 208 191 207 207 195 174 168 175 178 174 174 173 172 174 171 162 154 153 151 146 143 149 149 146 144 143 143 133 125 126 127 132 125 122 120 118 114 112 107 102 98 93 91 88 86 86 88 91 92 94 91 88 89 87 82 76 72 68 67 70 69 70 65 59
183 150 149 175 176 159 174 194 193 193 194 256 218 212 204 219 215 200 211 245 205 213 213 209 199 221 199 179 177 172 179 179 177 177 181 181 180 171 157 155 151 147 148 150 147 145 142 145 144 137 133 135 136 134 127 124 121 119 118 117 113 107 103 100 96 92 88 90 96 98 96 90 89 88 86 79 78 76 75 74 76 72 68 62 64 59
178 163 156 166 178 163 193 194 198 188 178 193 210 206 188 223 218 235 203 222 216 217 206 207 202 218 200 164 176 173 179 179 180 184 185 185 182 169 157 153 151 147 146 149 147 144 144 143 140 135 133 133 132 132 125 121 121 121 121 120 114 112 107 99 98 98 98 99 100 100 97 94 92 85 79 79 78 78 75 75 73 72 71 68 61 59
189 176 161 159 176 185 196 188 202 191 191 197 207 203 200 195 195 199 215 200 227 228 212 211 220 171 107 148 185 179 180 181 186 187 180 179 177 155 156 149 144 140 144 145 142 143 144 143 141 139 138 136 136 132 121 122 122 121 121 120 119 110 103 100 103 105 104 102 102 101 99 93 88 83 77 80 79 77 76 71 71 76 78 76 70 63
196 175 162 170 177 180 196 179 210 201 191 205 204 210 205 203 211 207 214 191 209 226 297 231 223 152 142 180 190 185 176 184 184 177 171 171 164 149 150 142 140 142 146 146 144 145 145 143 142 142 141 143 140 128 121 121 124 127 125 122 112 105 103 106 105 108 108 106 103 100 96 95 91 88 85 83 80 77 75 74 73 73 76 76 77 67
322 185 168 171 164 176 172 166 198 221 198 202 211 218 208 211 205 216 218 194 203 196 195 176 220 112 181 170 78 172 154 169 165 173 165 155 147 147 142 143 145 146 149 148 145 145 144 142 142 143 143 141 133 123 118 119 121 125 127 124 117 110 110 109 109 110 108 106 104 101 97 92 90 88 85 82 77 75 72 71 72 72 71 69 69 70
176 185 172 167 171 169 162 182 200 210 214 210 206 209 216 213 207 217 233 233 220 207 204 213 215 165 136 174 168 176 163 165 166 173 167 154 152 148 143 145 145 146 148 150 150 147 146 148 149 149 151 145 130 122 121 126 129 136 134 129 120 114 111 109 109 109 107 106 104 100 97 93 89 87 82 79 77 74 74 71 70 68 70 72 71 66
211 174 190 176 174 175 182 187 191 192 200 202 212 206 213 215 201 194 206 185 217 213 209 214 212 92 118 161 177 182 171 165 165 157 145 152 151 147 147 148 148 150 154 153 151 151 152 151 152 151 148 142 134 129 131 132 135 135 132 123 116 113 111 109 110 110 107 106 104 100 95 91 88 84 81 80 78 75 72 72 70 71 68 68 72 70
207 178 205 195 196 198 195 188 182 189 188 208 205 212 205 210 210 210 212 225 217 203 215 209 222 135 148 166 173 180 179 166 161 158 153 150 150 147 147 148 150 152 154 155 153 152 149 150 149 146 144 138 134 134 128 135 134 131 130 122 116 111 108 110 112 109 106 100 98 95 89 87 85 83 81 78 77 77 75 71 69 68 68 67 66 68
201 185 199 226 207 201 190 189 160 196 197 203 207 210 213 207 213 210 211 219 210 224 226 204 204 169 168 174 174 177 183 168 169 161 156 151 151 149 149 148 149 153 155 154 154 153 151 149 146 146 144 139 134 133 132 134 136 137 131 123 115 110 112 114 114 111 105 102 98 95 92 89 87 83 81 81 79 76 75 74 71 68 67 66 64 63
191 190 190 198 199 217 207 181 182 196 204 196 205 206 209 209 208 214 218 222 218 223 229 187 188 197 183 183 175 182 181 182 171 161 150 149 145 143 145 149 153 156 158 158 157 154 148 147 149 145 139 137 138 138 139 141 141 134 126 120 115 114 116 118 115 110 106 102 98 95 95 93 88 87 86 83 81 79 76 73 70 69 69 67 67 61
206 197 172 198 187 176 177 176 184 202 203 203 204 208 209 210 213 214 215 216 222 227 237 212 199 217 208 197 190 180 168 164 155 153 144 145 150 148 147 150 151 155 159 160 159 154 149 147 142 138 138 142 144 145 145 144 141 133 123 118 114 114 114 114 112 108 106 103 101 101 100 97 94 89 86 84 82 80 78 76 73 70 67 64 63 63
231 163 171 181 187 170 149 180 197 210 205 215 213 213 213 217 219 215 214 214 215 225 226 223 208 210 114 193 181 145 152 144 148 158 157 153 150 149 147 151 155 159 160 159 156 150 139 133 139 139 142 144 140 139 144 142 135 130 122 118 115 113 115 113 109 106 104 103 103 103 101 98 94 93 88 86 84 82 80 76 75 71 68 65 61 61
223 147 175 183 195 168 174 189 181 202 212 219 216 217 217 214 216 212 215 211 213 212 215 218 217 211 149 158 134 142 148 152 163 164 160 161 159 156 156 158 160 161 160 157 150 138 134 136 141 143 141 140 143 145 143 139 137 132 123 120 119 118 116 113 110 109 108 107 109 107 103 100 98 92 89 87 83 81 79 79 76 73 68 65 63 60
200 182 179 182 201 181 171 193 187 192 208 222 223 214 220 226 230 224 221 218 220 216 217 211 214 189 144 154 152 156 168 171 173 172 168 168 169 165 162 162 161 157 154 143 131 137 138 140 146 144 144 152 150 146 144 141 135 128 126 123 121 122 122 121 118 116 114 112 108 105 104 103 99 96 92 87 84 81 80 78 77 73 70 66 63 62
190 203 187 181 206 179 165 181 177 205 213 216 157 292 221 221 217 223 220 213 211 207 227 223 222 219 153 159 168 168 183 191 189 183 175 168 168 168 164 163 159 136 125 135 139 137 142 146 150 151 154 154 148 142 138 134 126 121 120 119 118 116 112 111 107 105 107 109 109 109 108 105 102 98 93 89 85 83 81 78 75 75 71 72 67 63
189 196 200 175 204 182 162 158 196 214 216 70 342 58 32 44 20 232 230 223 205 202 198 207 220 213 168 180 184 181 179 179 183 174 171 169 164 162 161 161 143 137 145 148 151 151 150 150 151 153 155 149 139 134 132 129 125 120 116 115 113 111 110 109 112 115 115 111 109 111 111 109 106 100 94 88 84 82 80 78 80 74 71 68 62 61
187 197 181 193 214 162 171 195 208 216 85 147 109 108 91 91 174 145 246 214 207 203 199 216 216 215 203 185 158 151 163 166 161 172 170 167 165 161 160 158 152 154 157 157 144 143 150 152 153 153 148 136 138 141 138 132 128 121 116 115 113 112 111 112 110 108 109 110 112 111 109 109 106 101 97 94 92 89 85 82 77 76 74 73 72 68
191 195 187 189 220 200 199 199 209 77 177 166 172 195 188 186 183 191 213 222 198 201 201 209 210 203 180 152 141 143 142 143 157 171 171 166 166 164 163 159 156 151 136 132 136 146 153 150 143 137 134 137 138 138 135 130 122 118 118 116 114 113 112 110 106 105 107 107 108 108 110 108 103 100 99 98 97 94 90 86 80 74 75 76 70 69
207 203 183 203 185 225 204 200 212 224 242 209 197 137 190 246 193 204 233 254 186 192 195 199 194 173 161 148 141 142 138 143 159 176 176 171 171 170 162 154 145 135 140 136 140 144 148 147 133 133 131 132 133 132 130 127 122 120 117 115 114 113 109 105 104 108 109 109 109 108 106 105 104 104 102 101 100 98 95 89 83 78 66 70 73 72
216 219 199 200 174 196 218 219 211 223 223 71 129 139 162 165 173 142 193 234 181 181 182 192 184 171 160 147 150 149 156 172 183 177 180 177 176 166 154 146 137 142 142 149 150 148 149 135 130 126 126 130 128 130 127 121 118 115 113 113 112 107 106 106 110 114 113 112 111 108 105 102 102 102 103 102 101 98 96 88 82 82 80 80 82 77
194 203 210 218 200 200 214 217 220 223 202 126 124 148 148 168 155 196 212 233 166 171 174 181 178 165 158 157 162 172 176 184 190 186 174 175 170 161 149 146 150 146 143 146 148 145 129 125 124 127 133 131 128 128 125 121 117 115 115 116 113 112 116 121 120 118 115 114 109 104 102 101 101 102 103 104 101 96 93 91 86 78 75 75 75 76
188 196 200 214 214 198 220 224 238 208 106 125 135 141 144 156 181 196 210 66 102 178 173 175 176 170 164 166 175 186 199 212 167 152 158 162 162 159 151 152 150 149 146 145 136 131 125 129 131 135 134 130 132 132 129 125 125 125 127 129 126 122 120 121 123 121 118 114 111 108 105 102 103 103 102 102 101 98 94 88 86 83 80 78 73 75
184 187 196 214 217 212 202 232 226 247 79 121 137 143 151 157 192 216 75 291 232 192 192 186 176 170 170 174 183 196 174 142 135 147 149 145 140 142 139 140 139 134 128 132 133 132 131 133 135 132 132 135 138 138 135 132 127 127 128 123 119 120 122 124 124 124 123 118 111 106 104 104 103 101 99 103 105 103 94 88 86 83 82 79 80 78
178 189 191 197 214 217 208 223 224 232 153 161 135 149 185 229 48 40 14 98 253 181 186 188 179 168 172 169 180 169 131 146 146 148 152 133 135 141 141 138 133 130 129 131 133 136 135 137 137 136 138 143 144 141 136 132 128 126 125 121 122 126 127 128 129 126 120 114 110 107 106 107 107 106 108 106 104 100 97 96 92 90 90 90 88 84
162 216 195 200 196 200 203 217 227 23 123 161 161 187 193 108 65 25 353 75 155 183 174 177 178 176 173 177 173 148 135 139 149 153 153 139 134 131 129 128 131 135 135 139 140 141 138 135 137 140 145 145 143 139 137 134 130 129 126 126 128 127 129 131 126 121 117 115 113 113 113 113 112 111 110 107 102 96 93 88 87 84 80 79 78 80
148 244 248 220 175 224 216 203 72 49 131 167 220 20 30 56 43 27 8 29 149 155 172 181 179 175 188 176 155 149 141 148 154 158 158 153 143 139 137 139 139 140 139 137 138 141 144 144 144 145 144 143 142 140 139 136 132 132 130 130 133 134 132 128 126 125 123 121 119 119 119 116 114 111 107 108 103 99 94 90 89 87 84 78 72 68
21 310 307 255 190 96 12 85 125 151 171 184 207 0 358 16 58 240 311 1 77 138 169 184 167 173 158 153 157 150 147 149 152 153 153 152 149 142 133 132 135 138 140 139 142 147 145 143 143 144 142 142 143 140 139 137 136 135 133 137 138 136 131 131 130 129 126 125 124 124 124 121 115 106 101 99 96 88 84 83 81 81 79 76 71 66
127 118 247 217 164 196 214 139 159 129 174 226 232 230 305 321 33 327 270 302 138 154 164 178 164 136 144 148 156 153 141 143 148 152 148 151 152 146 139 139 142 144 144 145 146 146 145 147 145 145 144 142 143 141 141 140 139 136 139 142 141 138 137 133 132 129 127 126 127 126 124 127 122 118 112 106 97 92 89 85 83 78 76 77 72 68
170 180 256 200 166 209 130 110 95 133 233 247 236 216 221 173 151 163 331 102 131 143 154 123 121 134 135 138 138 138 142 147 149 153 154 155 148 139 140 141 142 144 149 148 148 149 147 148 146 145 144 142 143 143 143 141 140 142 144 145 143 142 138 136 136 135 133 132 130 134 131 118 122 132 115 111 104 100 93 80 72 66 56 41 36 55
66 154 218 177 205 155 95 172 152 179 208 204 201 220 219 204 163 141 149 149 144 139 124 128 141 139 145 139 141 138 142 151 155 157 157 155 140 140 141 142 143 144 145 148 150 150 149 148 145 144 142 141 143 145 145 143 144 145 147 147 147 145 143 139 138 134 135 134 131 125 128 139 146 120 114 107 93 73 57 57 76 87 70 47 42 24
176 194 153 202 210 212 239 174 165 221 214 174 189 186 181 175 196 146 146 139 141 138 152 158 156 154 143 144 144 145 145 153 160 162 157 144 141 140 141 141 146 148 151 151 150 149 144 144 144 144 144 143 147 148 145 145 147 148 149 148 148 147 142 143 142 139 138 137 134 136 144 139 129 128 124 118 110 102 89 42 29 13 62 96 84 16
234 89 214 212 234 202 44 70 81 8 80 35 92 135 122 147 170 155 143 139 141 145 158 156 156 158 152 150 152 149 149 153 162 156 145 140 143 146 148 148 148 151 149 149 147 146 144 145 145 143 145 147 150 148 146 148 149 150 150 149 150 149 147 149 146 144 139 140 143 143 141 138 139 139 132 130 131 125 122 121 102 66 38 35 81 37